Location: *
(41.0833°N, 73.4167°W)
Time: 17:51:58
(UTC+00:00)

H-2A R/B - Pass Details

Date: 22 October 2019
Orbit: 530 x 653 km, 98.3° (Epoch: 14 November)

Event Time Altitude Azimuth Distance (km) Brightness Sun altitude
Rises 09:30:13 0° 6° (N) 2,834 6.1 -20.0°
Reaches altitude 10° 09:32:24 10° 0° (N) 1,948 5.1 -19.6°
Maximum altitude 09:36:27 45° 288° (WNW) 841 2.8 -18.8°
Enters shadow 09:37:11 41° 259° (WSW) 902 2.9 -18.7°
